Location: Caltech
(34.1382°N, 118.1253°W)
Time: 00:47:19
(UTC-07:00)

Iridium 49 - Visible Passes

Search period start: 17 August 2017 00:00
Search period end: 27 August 2017 00:00
Orbit: 776 x 779 km, 86.4° (Epoch: 16 August)

Date Brightness Start Highest point End Pass type
(mag) Time Alt. Az. Time Alt. Az. Time Alt. Az.
17 Aug 7.8 05:34:29 10° NNE 05:39:18 36° E 05:44:04 10° SSE visible
18 Aug 8.9 05:01:54 10° NE 05:05:35 19° E 05:09:14 10° SE visible
20 Aug 6.9 05:34:21 10° N 05:39:27 55° E 05:44:33 10° SSE visible
21 Aug 8.2 05:01:21 10° NNE 05:05:49 28° E 05:10:15 10° SE visible
22 Aug 9.0 04:29:11 10° NE 04:32:03 15° ENE 04:34:54 10° ESE visible
23 Aug 6.2 05:34:21 10° N 05:39:34 82° E 05:44:47 10° S visible
24 Aug 7.4 05:01:04 10° NNE 05:06:00 42° E 05:10:55 10° SSE visible
25 Aug 8.5 04:28:19 10° NNE 04:32:19 22° E 04:36:18 10° SE visible
26 Aug 9.1 03:57:05 10° ENE 03:58:30 11° ENE 03:59:55 10° E visible
26 Aug 6.0 05:34:28 10° N 05:39:40 67° W 05:44:49 10° S visible
